Regional Weather Roundup
Issued by NWS

Home | Current Version | Previous Version | Graphics & Text | Print | Product List | Glossary On
Versions: 1 2 3 4 5 6 7 8 9 10 11 12 13 14 15 16 17 18 19 20 21 22 23 24 25 26 27 28 29 30 31 32 33 34 35 36 37 38 39 40 41 42 43 44 45 46 47 48 49 50
000
ASUS43 KLSX 170807
RWRMO

WEATHER SUMMARY FOR MISSOURI
NATIONAL WEATHER SERVICE SPRINGFIELD MO
200 AM CST TUE JAN 17 2017

NOTE: "FAIR" INDICATES FEW OR NO CLOUDS BELOW 12,000 FEET WITH NO
       SIGNIFICANT WEATHER AND/OR OBSTRUCTIONS TO VISIBILITY.
       CURRENT SKY AND/OR WEATHER CONDITIONS ARE NOT AVAILABLE FOR
       CHILLICOTHE AND FARMINGTON.

MOZ001>031-035>038-043-044-053-054-170900-
...NORTHERN AND WESTERN MISSOURI...

CITY           SKY/WX    TMP DP  RH WIND       PRES   REMARKS
KANSAS CTY INT FOG       34  33  96 W9        29.97R VSB 1/2 WCI  27
KANSAS C DTWN  CLOUDY    37  34  89 W8        29.99R
LEE`S SUMMIT   CLOUDY    36  32  85 W10       29.98R WCI  28
ST JOSEPH      CLOUDY    34  34 100 NW8       29.98R WCI  27
CHILLICOTHE      N/A     37  36  96 W6        29.94R
KIRKSVILLE     CLOUDY    40  40 100 W8        29.89R FOG

$$
MOZ066>068-077>081-088>096-101>105-170900-
...SOUTHWEST MISSOURI...

CITY           SKY/WX    TMP DP  RH WIND       PRES   REMARKS
SPRINGFIELD    CLOUDY    41  34  76 W10       29.99R
JOPLIN         CLOUDY    40  37  89 MISG      30.02S
BRANSON        CLOUDY    39  36  87 CALM      30.02R

$$
MOZ032>034-039>042-045>050-055>058-069>072-170900-
...CENTRAL MISSOURI...

CITY           SKY/WX    TMP DP  RH WIND       PRES   REMARKS
COLUMBIA       CLOUDY    41  38  89 W14       29.94F
JEFFERSON CITY CLOUDY    43  37  79 W10       29.97S
ROLLA          CLOUDY    41  36  82 W13       29.94R
SEDALIA        CLOUDY    41  39  93 W10       29.96S FOG
WHITEMAN AFB   CLOUDY    39  39 100 W10       29.95R
WARRENSBURG    CLOUDY    37  36  93 SW10G17   29.97S
OSAGE BEACH    CLOUDY    42  36  79 W9        29.98S

$$
MOZ051-052-059>065-170900-
...EAST CENTRAL MISSOURI...

CITY           SKY/WX    TMP DP  RH WIND       PRES   REMARKS
ST LOUIS INTL  CLOUDY    50  44  80 W12       29.90S
SPIRIT OF STL  CLOUDY    48  44  86 W10       29.91R
ST CHARLES     CLOUDY    48  43  82 W16G26    29.91R

$$
MOZ072>076-082>087-097>100-106>115-170900-
...SOUTH CENTRAL AND SOUTHEAST MISSOURI...

CITY           SKY/WX    TMP DP  RH WIND       PRES   REMARKS
CAPE GIRARDEAU CLEAR     59  56  89 SW13      29.91R
FARMINGTON     CLOUDY    49  44  83 W9G16     29.94R
POPLAR BLUFF   MOCLDY    57  57 100 W10       29.94R
WEST PLAINS    CLEAR     41  38  89 W6        29.99R

$$



USA.gov is the U.S. government's official web portal to all federal, state and local government web resources and services.